Observer details:
104 San Marcello Pistoiese.  Observers P. Bacci, M. Maestripieri.  Measurers
    P. Bacci, L. Tesi, G. Fagioli.  0.60-m F4 Reflector + CCD.
203 GiaGa Observatory.  Observers S. Foglia, G. Galli.  Measurer G. Galli.
    0.36-m f/5.76 Schmidt-Cassegrain + CCD.
595 Farra d'Isonzo.  Observers U. Montanar, E. Pettarin.  Measurer E.
    Pettarin.  0.61-m f/4.5 reflector + CCD.
703 Catalina Sky Survey.  Observer D. Rankin.  Measurers E. J. Christensen, D.
    Fay, J. B. Fazekas, D. C. Fuls, A. R. Gibbs, A. D. Grauer, H. Groeller, J.
    K. Hogan, R. A. Kowalski, S. M. Larson, G. J. Leonard, D. Rankin, R. L.
    Seaman, A. Serrano, F. C. Shelly, K. W. Wierzchos.  0.68-m Schmidt + 10K
    CCD.
958 Observatoire de Dax.  Observers P. Dupouy, J. B. de Vanssay.  Measurer P.
    Dupouy.  0.43-m f/2.7 Reflector + CCD.
A17 Guidestar Observatory, Weinheim.  Observers M. Emmerich, S. Melchert.
    0.36-m f/6.0 Schmidt-Cassegrain + CCD.
G02 KYSUCE Observatory, Kysucke Nove Mesto.  Observer M. Urbanik.  0.40-m
    f/6.8 Corrected Dall-Kirkham + CCD.
H01 Magdalena Ridge Observatory, Socorro.  Observers W. H. Ryan, E. V. Ryan.
    Measurer W. H. Ryan.  2.4-m f/8.9 Ritchey-Chretien + CCD.
H21 Astronomical Research Observatory, Westfield.  Observer R. Holmes.
    Measurers T. Linder, R. Holmes, L. Horn.  0.76-m f/3.0 astrograph + CCD.
I52 Steward Observatory, Mt. Lemmon Station.  Observer D. Rankin.  Measurers
    E. J. Christensen, D. Fay, J. B. Fazekas, D. C. Fuls, A. R. Gibbs, A. D.
    Grauer, H. Groeller, J. K. Hogan, R. A. Kowalski, S. M. Larson, G. J.
    Leonard, D. Rankin, R. L. Seaman, A. Serrano, F. C. Shelly, K. W.
    Wierzchos.  1.0-m prime focus + CCD.
I93 St Pardon de Conques.  Observer F. Losse.  0.40-m f/3.7 reflector + CMO.
J69 North Observatory, Clanfield.  Observer D. Briggs.  0.3-m f/5.4 Newtonian
    reflector + CCD.
J95 Great Shefford.  Observer P. Birtwhistle.  0.41-m f/6.3 Schmidt-Cassegrain
    + CCD.
K63 G. Pascoli Observatory, Castelvecchio Pascoli.  Observer R. Bacci.  0.41-m
    f/3.75 0.41m f/3.2  Newton + CCD.
L01 Visnjan Observatory, Tican.  Observer K. Korlevic.  1.0-m f/2.9 reflector
    + CCD.
L34 Galhassin Robotic Telescope, Isnello.  Observer A. Nastasi.  0.40-m f/3.8
    400mm Reflector + CCD.
L47 Osservatorio Astronomico, Piobbico.  Observers A. Teseo, A. Annamelia.
    Measurer A. Teseo.  0.20-m f/6.3 Schmidt-Cassegrain + CCD, 203.0-m f/6.3
    0.20-m f/6.3 Schmidt-Cassegrain + CCD + CCD.
M32 Sunny Transcarpathian, Mukachevo.  Observer O. Briukhovetskyi.  0.35-m
    f/2.0 astrograf + CCD.
M45 Starhopper Observatory, Sfantu Gheorghe.  Observer F. Ursache.  0.41-m
    f/7.5 reflector + CMO.
Y05 SONEAR Wykrota-CEAMIG, Serra da Piedade.  Observer C. Jacques.  0.45-m
    f/2.9 reflector + CMO.

Orbital elements:
2023 TC                                                  Earth MOID = 0.0055 AU
Epoch 2023 Sept. 13.0 TT = JDT 2460200.5                Veres                   
M 314.51688              (2000.0)            P               Q                  
n   0.76728088     Peri.   41.79113     +0.61771862     -0.78551055             
a   1.1816798      Node    10.25159     +0.65431997     +0.48702582             
e   0.1813991      Incl.   12.12272     +0.43622137     +0.38181020             
P   1.28           H   26.50          G   0.15           U   6                  
Residuals in seconds of arc
231003 703  2.0-  0.3+    231003 L47  1.0-  0.8+    231003 I93  0.1+  0.1+
231003 703  0.5+  0.5+    231003 L47  0.5+  1.1+    231003 J69  0.6-  0.6+
231003 703  0.6-  0.8-    231003 L47  0.1-  1.0+    231003 I93  0.0   0.1+
231003 I52  0.2+  0.7+    231003 595  0.1-  0.3-    231003 J69  0.1+  0.3-
231003 I52  0.1+  0.8+    231003 L47  0.0   0.9+    231003 J69  0.0   0.2-
231003 I52  0.0   1.0+    231003 595  0.1-  0.4-    231003 I93  0.2-  0.2+
231003 I52  0.1+  0.7+    231003 203  0.1+  0.1+    231003 J69  1.2-  0.4-
231003 I52  0.1+  0.6+    231003 L47  0.7+  0.8-    231003 M45  0.6-  0.0
231003 I52  0.2+  0.7+    231003 595  0.7+  0.1-    231003 M45  0.3-  0.6+
231003 I52  0.1+  0.6+    231003 595  0.3+  0.2+    231003 M45  0.2-  0.7+
231003 I52  0.1+  0.5+    231003 203  0.1-  0.3+    231003 M45  0.3-  0.7+
231003 H01  0.2-  0.6+    231003 L34  0.3-  0.5-    231003 L34  0.4+  0.3-
231003 H01  0.2+  0.5+    231003 203  0.0   0.1-    231003 958  0.6-  0.4+
231003 H01  0.4+  0.3+    231003 L47  0.2+  0.3-    231003 958  0.5-  0.4-
231003 H01  0.0   0.8+    231003 L47  0.7+  0.9-    231003 J95  0.0   0.5-
231003 G02  0.2-  0.2-    231003 L47  0.9+  0.3+    231003 J95  0.2+  0.0
231003 G02  1.2-  0.6+    231003 L01  0.5-  0.4-    231003 958  0.5-  0.6-
231003 G02  0.6-  0.9+    231003 L01  0.3-  0.4-    231003 J95  0.3+  0.3-
231003 M32  0.1-  0.8+    231003 K63  0.2-  0.3-    231003 J95  0.0   0.2-
231003 M32  0.4-  0.7+    231003 L01  0.2-  0.4-    231003 L34  0.1-  0.2-
231003 M32  0.1-  0.4+    231003 K63  0.3-  0.1+    231003 Y05  0.1-  0.5-
231003 M32  0.1+  0.1+    231003 K63  0.2+  0.0     231003 Y05  0.1+  0.4-
231003 M32  0.7+  1.3-    231003 L01  0.3-  0.5-    231004 H21  0.5-  0.9+
231003 A17  0.1+  0.5+    231003 L01  0.3-  0.2-    231004 H21  0.5-  0.5+
231003 A17  0.4+  0.1-    231003 L01  0.4-  0.3-    231004 H21  0.5-  0.6+
231003 A17  0.6+  0.1-    231003 K63  0.2+  0.1-    231004 H21  0.5-  0.7+
231003 104  0.2-  0.3+    231003 L01  0.7-  0.5-    231004 H21  0.3-  0.7+
231003 104  0.3+  0.5+    231003 L01  0.7-  0.3-
231003 104  0.3-  0.1-    231003 I93  0.1-  0.4+

Ephemeris:
2023 TC                  a,e,i = 1.18, 0.18, 12                  q = 0.9673
Date    TT    R. A. (2000) Decl.     Delta      r    Elong.  Phase     V
2023 09 04    01 49 49.2 -55 32 45   0.1291  1.0795   120.2    53.8    24.2
...
2023 09 19    01 51 14.8 -55 31 45   0.06673 1.0402   120.4    56.4    22.8
...
2023 09 27    01 34 31.2 -51 58 04   0.03328 1.0215   124.0    54.5    21.1
...
2023 10 03    00 30 34.8 -26 55 48   0.0093151.0089   149.4    30.3    17.7
2023 10 04    23 56 58.1 -04 42 16   0.0064951.0069   166.6    13.3    16.4
2023 10 05    22 59 13.5 +32 56 00   0.0058001.0049   142.9    36.9    16.8
...
2023 10 11    15 35 47.4 +67 34 07   0.02706 0.9938    79.1    99.4    22.2
...
2023 10 19    14 43 05.6 +63 09 48   0.06001 0.9815    74.1   102.5    24.1
...
2023 11 03    14 23 28.6 +59 51 15   0.1194  0.9675    74.7    98.5    25.4

M. P. C. Staff               (C) Copyright 2023 MPC           M.P.E.C. 2023-T11





More information about the Iaude mailing list